Flag for Bahamas Weather past 2 weeks in Nassau, Bahamas

Now
84 °F

Sprinkles. Partly sunny.


Feels Like: 96 °F
Forecast: 83 / 88 °F
Wind: 12 mph from Southeast

Location: Nassau Airport

Current Time: Aug 30, 2015 at 8:36:49 AM

Latest Report: Aug 30, 2015 at 8:00 AM


Visibility: 6 mi

Pressure: 30.04 "Hg

Humidity: 84%

Dew point: 79 °F

Location of NassauLocation

Historic Weather in Nassau — Graph

°F

Nassau temperature yesterday

Maximum temperature yesterday: 91 °F (at 2:00 PM)
Minimum temperature yesterday: 79 °F (at 7:00 PM)
Average temperature yesterday: 85 °F

Past Weeks' High & Low Weather Summary

 TemperatureHumidityPressure
High99 °F (Aug 27, 3:19 PM)100% (Aug 25, 11:00 AM)30.10 "Hg (Aug 25, 11:00 AM)
Low75 °F (Aug 26, 11:00 AM)42% (Aug 27, 3:19 PM)29.89 "Hg (Aug 24, 5:00 AM)
Average85 °F76%30.00 "Hg
* Reported Aug 15 6:00 AM — Aug 30 6:00 AM, Nassau, Weather by CustomWeather, © 2015

Note: Actual official high and low records may vary slightly from our data, if they occured in-between our weather recording intervals... More about our weather records

Advertising

Nassau weather history for previous 24 hours

 ConditionsComfort  
Time TempWeatherWind HumidityBarometerVisibility
6:00 AM
Sun, Aug 30
84 °FPassing clouds.7 mph74%29.99 "HgN/A
5:00 AM84 °FPassing clouds.8 mph84%29.98 "HgN/A
11:00 PM
Sat, Aug 29
84 °FPassing clouds.12 mph70%30.02 "HgN/A
10:00 PM82 °FPassing clouds.16 mph74%30.02 "HgN/A
9:00 PM81 °FPartly cloudy.21 mph84%30.00 "HgN/A
8:00 PM81 °FBroken clouds.12 mph94%29.98 "HgN/A
7:00 PM79 °FThunderstorms. Broken clouds.16 mph84%29.98 "Hg6 mi
6:00 PM84 °FScattered showers. Broken clouds.21 mph74%29.98 "HgN/A
5:00 PM88 °FBroken clouds.18 mph75%29.98 "HgN/A
4:00 PM88 °FBroken clouds.21 mph70%29.98 "HgN/A
3:00 PM86 °FSprinkles. Broken clouds.18 mph66%30.02 "HgN/A
2:00 PM91 °FBroken clouds.15 mph71%30.02 "HgN/A
12:00 PM88 °FPartly sunny.18 mph66%30.04 "HgN/A
11:00 AM90 °FScattered clouds.15 mph71%30.05 "HgN/A
10:00 AM88 °FScattered clouds.10 mph66%30.04 "HgN/A
9:00 AM86 °FScattered clouds.12 mph70%30.03 "HgN/A
8:00 AM84 °FRain showers. Passing clouds.13 mph84%30.02 "HgN/A
Weather by CustomWeather, © 2015

See weather overviewHow to use our weather pages